Location: Amsterdam
(30.7274°N, 84.4357°W)
Time: 20:44:53
(UTC+00:00)

Tiros 1 despin weight - Pass Details

Date: 24 February 2026
Orbit: 556 x 593 km, 48.2° (Epoch: 3 March)

Event Time Altitude Azimuth Distance (km) Brightness Sun altitude
Rises 18:44:58 0° 275° (W) 2,757 ? 48.0°
Reaches altitude 10° 18:48:02 10° 298° (WNW) 1,854 ? 47.7°
Maximum altitude 18:50:36 16° 335° (NNW) 1,526 ? 47.5°
Drops below altitude 10° 18:53:10 10° 13° (NNE) 1,846 ? 47.3°
Sets 18:56:13 0° 36° (NE) 2,738 ? 47.1°
